Location: Pcim
(49.7500°N, 19.9670°E)
Time: 22:06:59
(UTC+02:00)

Gurwin Techsat 1B - Visible Passes

Search period start: 22 April 2024 00:00
Search period end: 02 May 2024 00:00
Orbit: 811 x 812 km, 98.9° (Epoch: 21 April)

Date Brightness Start Highest point End Pass type
(mag) Time Alt. Az. Time Alt. Az. Time Alt. Az.
22 Apr 10.7 03:12:34 10° NE 03:16:40 22° E 03:20:44 10° SE visible
22 Apr 8.7 04:51:43 10° N 04:56:59 63° WNW 05:02:13 10° SSW visible
23 Apr 11.1 02:50:20 10° NE 02:53:08 14° E 02:55:56 10° ESE visible
23 Apr 8.7 04:28:27 10° NNE 04:33:49 87° ESE 04:39:08 10° SSW visible
24 Apr 9.2 04:05:18 10° NNE 04:10:34 57° ESE 04:15:48 10° S visible
25 Apr 9.9 03:42:18 10° NNE 03:47:15 37° E 03:52:09 10° SSE visible
26 Apr 10.6 03:19:30 10° NE 03:23:50 25° E 03:28:09 10° SSE visible
27 Apr 11.1 02:57:04 10° NE 03:00:20 16° E 03:03:35 10° SE visible
27 Apr 8.7 04:35:34 10° NNE 04:40:55 84° WNW 04:46:14 10° SSW visible
28 Apr 9.0 04:12:22 10° NNE 04:17:41 65° ESE 04:22:57 10° S visible
29 Apr 9.7 03:49:19 10° NNE 03:54:23 42° E 03:59:24 10° S visible
30 Apr 10.4 03:26:27 10° NE 03:30:59 28° E 03:35:30 10° SSE visible
01 May 11.0 03:03:52 10° NE 03:07:31 18° E 03:11:08 10° SE visible
